EW4610 Weather Reports


time (UTC)temp
C
wind
direction
speed
KPH
gust
KPH
rain 1hr
cm
rain 24hr
cm
rain mn
cm
humidity
%
barometer
mb
20260507114820 13 0.0 1.6 0.00 0.00 0.00 60 1016.7
20260507114332 13 0.0 0.0 0.00 0.00 0.00 62 1016.7
20260507113822 13 0.0 1.6 0.00 0.00 0.00 63 1016.7
20260507113321 13 0.0 3.2 0.00 0.00 0.00 64 1016.7
20260507112744 13 0.0 1.6 0.00 0.00 0.00 65 1016.7
20260507112208 13 0.0 0.0 0.00 0.00 0.00 65 1016.7
20260507111637 13 1.6 3.2 0.00 0.00 0.00 65 1016.8
20260507111052 13 1.6 4.8 0.00 0.00 0.00 65 1016.8
20260507110521 13 0.0 0.0 0.00 0.00 0.00 65 1016.8
20260507105950 13 0.0 0.0 0.00 0.00 0.00 65 1017.0
20260507105418 13 0.0 0.0 0.00 0.00 0.00 65 1017.0
20260507104828 13 0.0 1.6 0.00 0.00 0.00 65 1017.0
20260507104328 13 0.0 0.0 0.00 0.00 0.00 65 1016.9
20260507103827 13 0.0 1.6 0.00 0.00 0.00 64 1017.0
20260507103326 -17 0.0 0.0 0.00 0.00 0.00 1017.0
20260507102826 -17 0.0 0.0 0.00 0.00 0.00 1016.9
20260507102325 -17 0.0 0.0 0.00 0.00 0.00 1017.1
20260507101825 -17 0.0 0.0 0.00 0.00 0.00 1017.0
20260507101324 -17 0.0 0.0 0.00 0.00 0.00 1016.9
20260507100823 -17 0.0 0.0 0.00 0.00 0.00 1016.9
20260507100323 -17 0.0 0.0 0.00 0.00 0.00 1017.0
20260507095823 -17 0.0 0.0 0.00 0.00 0.00 1017.1
20260507095321 -17 0.0 0.0 0.00 0.00 0.00 1017.0
20260507094820 -17 0.0 0.0 0.00 0.00 0.00 1016.9
20260507094250 -17 0.0 0.0 0.00 0.00 0.00 1016.9
20260507093705 -17 0.0 0.0 0.00 0.00 0.00 1017.1
20260507092905 -17 0.0 0.0 0.00 0.00 0.00 1017.0
20260507092334 -17 0.0 0.0 0.00 0.00 0.00 1017.0
20260507091827 -17 0.0 0.0 0.00 0.00 0.00 1017.0
20260507091327 -17 0.0 0.0 0.00 0.00 0.00 1017.1
20260507090824 -17 0.0 0.0 0.00 0.00 0.00 1017.1
20260507090324 -17 0.0 0.0 0.00 0.00 0.00 1017.1
20260507085823 -17 0.0 0.0 0.00 0.00 0.00 1017.3
20260507085323 -17 0.0 0.0 0.00 0.00 0.00 1017.0
20260507084822 -17 0.0 0.0 0.00 0.00 0.00 1017.1
20260507084322 -17 0.0 0.0 0.00 0.00 0.00 1017.0
20260507083828 -17 0.0 0.0 0.00 0.00 0.00 1016.9
20260507083313 -17 0.0 0.0 0.00 0.00 0.00 1016.9
20260507082742 -17 0.0 0.0 0.00 0.00 0.00 1016.7
20260507082159 -17 0.0 0.0 0.00 0.00 0.00 1016.9
20260507081628 -17 0.0 0.0 0.00 0.00 0.00 1016.9
20260507081042 -17 0.0 0.0 0.00 0.00 0.00 1016.9
20260507080326 -17 0.0 0.0 0.00 0.00 0.00 1017.0
20260507075758 -17 0.0 0.0 0.00 0.00 0.00 1016.9
20260507075223 -17 0.0 0.0 0.00 0.00 0.00 1016.8
20260507074651 -17 0.0 0.0 0.00 0.00 0.00 1017.0
20260507074102 -17 0.0 0.0 0.00 0.00 0.00 1016.8
20260507073447 -17 0.0 0.0 0.00 0.00 0.00 1016.8
20260507072910 -17 0.0 0.0 0.00 0.00 0.00 1016.8
20260507072324 -17 0.0 0.0 0.00 0.00 0.00 1016.9
20260507071824 -17 0.0 0.0 0.00 0.00 0.00 1016.9
20260507071323 9 0.0 0.0 0.00 0.00 0.00 96 1016.7
20260507070822 9 0.0 0.0 0.00 0.00 0.00 96 1016.8
20260507070236 9 0.0 0.0 0.00 0.00 0.00 96 1016.8
20260507065706 8 0.0 0.0 0.00 0.00 0.00 96 1016.7
20260507065129 8 0.0 0.0 0.00 0.00 0.00 97 1016.8
20260507064559 8 0.0 0.0 0.00 0.00 0.00 97 1016.7
20260507064028 7 0.0 0.0 0.00 0.00 0.00 97 1016.7
20260507063442 7 0.0 0.0 0.00 0.00 0.00 97 1016.6
20260507062912 7 0.0 0.0 0.00 0.00 0.00 97 1016.5
20260507062326 6 0.0 0.0 0.00 0.00 0.00 97 1016.6
20260507061826 6 0.0 0.0 0.00 0.00 0.00 98 1016.4
20260507061319 6 0.0 0.0 0.00 0.00 0.00 97 1016.3
20260507060818 6 0.0 0.0 0.00 0.00 0.00 97 1016.3
20260507060332 6 0.0 0.0 0.00 0.00 0.00 97 1016.2
20260507055821 6 0.0 0.0 0.00 0.00 0.00 97 1016.4
20260507055321 6 0.0 0.0 0.00 0.00 0.00 97 1016.3
20260507054821 6 0.0 0.0 0.00 0.00 0.00 96 1016.1
20260507054315 6 0.0 0.0 0.00 0.00 0.00 96 1016.3
20260507053814 6 0.0 0.0 0.00 0.00 0.00 96 1016.1
20260507053314 6 0.0 0.0 0.00 0.00 0.00 96 1016.2
20260507052828 6 0.0 0.0 0.00 0.00 0.00 96 1016.2
20260507052323 6 0.0 0.0 0.00 0.00 0.00 96 1016.2
20260507051822 6 0.0 0.0 0.00 0.00 0.00 96 1016.0
20260507051322 6 0.0 0.0 0.00 0.00 0.00 96 1016.0
20260507050816 6 0.0 0.0 0.00 0.00 0.00 96 1016.1
20260507050316 6 0.0 0.0 0.00 0.00 0.00 96 1016.1
20260507045816 6 0.0 0.0 0.00 0.00 0.00 96 1016.1
20260507045300 6 0.0 0.0 0.00 0.00 0.00 96 1016.2
20260507044730 6 0.0 0.0 0.00 0.00 0.00 96 1016.0
20260507044159 6 0.0 0.0 0.00 0.00 0.00 95 1016.0
20260507043528 6 0.0 0.0 0.00 0.00 0.00 95 1015.9
20260507042958 6 0.0 0.0 0.00 0.00 0.00 94 1016.0
20260507042328 5 0.0 0.0 0.00 0.00 0.00 94 1015.9
20260507041827 6 0.0 0.0 0.00 0.00 0.00 94 1016.1
20260507041327 6 0.0 0.0 0.00 0.00 0.00 94 1015.9
20260507040826 6 0.0 0.0 0.00 0.00 0.00 94 1015.9
20260507040316 6 0.0 0.0 0.00 0.00 0.00 94 1015.7
20260507035815 6 0.0 0.0 0.00 0.00 0.00 93 1015.8
20260507035315 6 0.0 0.0 0.00 0.00 0.00 93 1016.0
20260507034815 6 0.0 0.0 0.00 0.00 0.00 93 1016.0
20260507034314 6 0.0 0.0 0.00 0.00 0.00 93 1015.8
20260507033829 6 0.0 0.0 0.00 0.00 0.00 92 1016.0
20260507033324 6 0.0 0.0 0.00 0.00 0.00 92 1015.7
20260507032823 6 0.0 0.0 0.00 0.00 0.00 92 1015.7
20260507032323 6 0.0 0.0 0.00 0.00 0.00 92 1015.8
20260507031823 6 0.0 0.0 0.00 0.00 0.00 91 1015.9
20260507031322 7 0.0 0.0 0.00 0.00 0.00 91 1015.6
20260507030822 7 0.0 0.0 0.00 0.00 0.00 91 1015.8
20260507030321 7 0.0 0.0 0.00 0.00 0.00 91 1015.7
20260507025820 7 0.0 0.0 0.00 0.00 0.00 91 1015.7
20260507025220 7 0.0 0.0 0.00 0.00 0.00 91 1015.8
20260507024604 7 0.0 1.6 0.00 0.00 0.00 91 1015.8
20260507024014 7 0.0 0.0 0.00 0.00 0.00 90 1015.6
20260507023444 7 0.0 0.0 0.00 0.00 0.00 90 1015.8
20260507022913 7 0.0 1.6 0.00 0.00 0.00 90 1015.6
20260507022328 7 0.0 0.0 0.00 0.00 0.00 90 1015.7
20260507021827 7 0.0 1.6 0.00 0.00 0.00 90 1015.7
20260507021326 7 0.0 1.6 0.00 0.00 0.00 90 1015.7
20260507020816 8 0.0 0.0 0.00 0.00 0.00 90 1015.7
20260507020246 8 0.0 1.6 0.00 0.00 0.00 90 1015.6
20260507015700 8 0.0 1.6 0.00 0.00 0.00 90 1015.7
20260507015129 7 0.0 3.2 0.00 0.00 0.00 90 1015.6
20260507014559 7 0.0 3.2 0.00 0.00 0.00 90 1015.7
20260507014027 7 0.0 1.6 0.00 0.00 0.00 91 1015.6
20260507013442 7 0.0 0.0 0.00 0.00 0.00 90 1015.5
20260507012910 7 0.0 1.6 0.00 0.00 0.00 89 1015.6
20260507012325 7 0.0 0.0 0.00 0.00 0.00 88 1015.5
20260507011824 7 0.0 0.0 0.00 0.00 0.00 87 1015.4
20260507011339 7 0.0 0.0 0.00 0.00 0.00 87 1015.5
20260507010823 7 0.0 1.6 0.00 0.00 0.00 86 1015.6
20260507010322 7 0.0 0.0 0.00 0.00 0.00 86 1015.6
20260507005822 7 0.0 0.0 0.00 0.00 0.00 85 1015.5
20260507005322 7 0.0 0.0 0.00 0.00 0.00 85 1015.6
20260507004821 7 0.0 0.0 0.00 0.00 0.00 85 1015.5
20260507004321 7 0.0 0.0 0.00 0.00 0.00 85 1015.4
20260507003820 8 0.0 0.0 0.00 0.00 0.00 85 1015.6
20260507003321 8 0.0 0.0 0.00 0.00 0.00 85 1015.6
20260507002549 8 0.0 1.6 0.00 0.00 0.00 84 1015.7
20260507002019 8 0.0 0.0 0.00 0.00 0.00 83 1015.6
20260507001448 8 0.0 0.0 0.00 0.00 0.00 83 1015.4
20260507000912 8 0.0 0.0 0.00 0.00 0.00 81 1015.6
20260507000328 8 0.0 0.0 0.00 0.00 0.00 80 1015.8
20260506235827 8 0.0 0.0 0.00 0.00 0.00 80 1015.6
20260506235326 9 0.0 0.0 0.00 0.00 0.00 79 1015.7
20260506234826 9 0.0 0.0 0.00 0.00 0.00 79 1015.6
20260506234241 9 0.0 1.6 0.00 0.00 0.00 79 1015.4
20260506233705 9 0.0 0.0 0.00 0.00 0.00 78 1015.5
20260506233135 9 0.0 0.0 0.00 0.00 0.00 78 1015.4
20260506232559 9 0.0 3.2 0.00 0.00 0.00 77 1015.4
20260506232024 9 0.0 0.0 0.00 0.00 0.00 77 1015.5
20260506231438 9 0.0 1.6 0.00 0.00 0.00 77 1015.4
20260506230908 9 0.0 3.2 0.00 0.00 0.00 76 1015.4
20260506230323 10 1.6 3.2 0.00 0.00 0.00 75 1015.6
20260506225823 10 0.0 1.6 0.00 0.00 0.00 74 1015.4
20260506225322 10 0.0 3.2 0.00 0.00 0.00 74 1015.5
20260506224821 10 1.6 3.2 0.00 0.00 0.00 74 1015.7
20260506224315 10 0.0 1.6 0.00 0.00 0.00 73 1015.4
20260506223815 10 0.0 1.6 0.00 0.00 0.00 73 1015.4
20260506223314 10 3.2 6.4 0.00 0.00 0.00 72 1015.4
20260506222814 10 0.0 1.6 0.00 0.00 0.00 72 1015.5
20260506222313 10 0.0 3.2 0.00 0.00 0.00 71 1015.5
20260506221813 10 0.0 3.2 0.00 0.00 0.00 71 1015.4
20260506221313 10 0.0 1.6 0.00 0.00 0.00 70 1015.5
20260506220813 10 0.0 0.0 0.00 0.00 0.00 70 1015.3
20260506220242 10 0.0 3.2 0.00 0.00 0.00 69 1015.4
20260506215712 10 0.0 3.2 0.00 0.00 0.00 69 1015.4
20260506215126 10 0.0 3.2 0.00 0.00 0.00 68 1015.3
20260506214555 10 0.0 3.2 0.00 0.00 0.00 68 1015.3
20260506214025 10 1.6 3.2 0.00 0.00 0.00 68 1015.2
20260506213440 10 1.6 4.8 0.00 0.00 0.00 67 1015.2
20260506212909 10 0.0 3.2 0.00 0.00 0.00 67 1015.3
20260506212322 10 3.2 6.4 0.00 0.00 0.00 67 1015.3
20260506211822 10 4.8 8.0 0.00 0.00 0.00 67 1015.5
20260506211322 10 0.0 1.6 0.00 0.00 0.00 66 1015.1
20260506210831 10 1.6 3.2 0.00 0.00 0.00 66 1015.2
20260506210239 10 1.6 3.2 0.00 0.00 0.00 65 1015.1
20260506205708 10 3.2 4.8 0.00 0.00 0.00 65 1015.3
20260506205136 10 3.2 4.8 0.00 0.00 0.00 65 1015.1
20260506204550 11 0.0 3.2 0.00 0.00 0.00 64 1015.2
20260506204019 11 4.8 9.7 0.00 0.00 0.00 64 1015.1
20260506203448 11 3.2 6.4 0.00 0.00 0.00 64 1015.1
20260506202918 11 3.2 9.7 0.00 0.00 0.00 63 1015.1
20260506202327 11 1.6 6.4 0.00 0.00 0.00 63 1015.0
20260506201826 11 1.6 4.8 0.00 0.00 0.00 63 1014.7
20260506201325 11 3.2 6.4 0.00 0.00 0.00 62 1014.8
20260506200824 11 0.0 1.6 0.00 0.00 0.00 62 1014.8
20260506200248 11 3.2 4.8 0.00 0.00 0.00 62 1014.9
20260506195703 11 3.2 6.4 0.00 0.00 0.00 62 1014.6
20260506195132 11 1.6 6.4 0.00 0.00 0.00 62 1014.6
20260506194546 11 0.0 3.2 0.00 0.00 0.00 62 1014.4
20260506194016 11 1.6 3.2 0.00 0.00 0.00 62 1014.6
20260506193446 11 3.2 8.0 0.00 0.00 0.00 62 1014.4
20260506192911 11 3.2 8.0 0.00 0.00 0.00 62 1014.3
20260506192325 11 3.2 6.4 0.00 0.00 0.00 62 1014.5
20260506191824 11 6.4 11.3 0.00 0.00 0.00 62 1014.3
20260506191323 11 3.2 6.4 0.00 0.00 0.00 62 1014.2
20260506190823 11 1.6 8.0 0.00 0.00 0.00 62 1014.3
20260506190247 11 1.6 4.8 0.00 0.00 0.00 60 1014.4
20260506185702 11 1.6 3.2 0.00 0.00 0.00 60 1014.2
20260506185131 11 0.0 0.0 0.00 0.00 0.00 58 1014.1
20260506184601 12 0.0 0.0 0.00 0.00 0.00 57 1014.0
20260506184015 12 3.2 8.0 0.00 0.00 0.00 55 1014.1
20260506183444 12 3.2 6.4 0.00 0.00 0.00 55 1014.2
20260506182914 12 0.0 1.6 0.00 0.00 0.00 55 1014.1
20260506182323 12 0.0 3.2 0.00 0.00 0.00 55 1013.9
20260506181823 12 0.0 6.4 0.00 0.00 0.00 55 1013.8
20260506181323 12 3.2 6.4 0.00 0.00 0.00 55 1013.8
20260506180822 12 3.2 6.4 0.00 0.00 0.00 55 1013.8
20260506180321 12 4.8 9.7 0.00 0.00 0.00 55 1013.8
20260506175820 12 1.6 4.8 0.00 0.00 0.00 55 1013.7
20260506175320 12 3.2 6.4 0.00 0.00 0.00 55 1013.7
20260506174819 12 3.2 6.4 0.00 0.00 0.00 54 1013.5
20260506174319 12 1.6 6.4 0.00 0.00 0.00 54 1013.6
20260506173819 12 1.6 4.8 0.00 0.00 0.00 54 1013.5
20260506173312 12 1.6 4.8 0.00 0.00 0.00 54 1013.5
20260506172812 12 1.6 4.8 0.00 0.00 0.00 54 1013.5
20260506172241 12 1.6 3.2 0.00 0.00 0.00 55 1013.3
20260506171711 12 0.0 1.6 0.00 0.00 0.00 55 1013.3
20260506171131 13 3.2 6.4 0.00 0.00 0.00 54 1013.3
20260506170600 13 0.0 1.6 0.00 0.00 0.00 54 1013.5
20260506170030 13 1.6 4.8 0.00 0.00 0.00 53 1013.5
20260506165444 14 0.0 3.2 0.00 0.00 0.00 52 1013.3
20260506164908 15 1.6 3.2 0.00 0.00 0.00 51 1013.4
20260506164322 15 3.2 4.8 0.00 0.00 0.00 52 1013.1
20260506163822 15 1.6 4.8 0.00 0.00 0.00 52 1013.4
20260506163321 15 0.0 1.6 0.00 0.00 0.00 53 1013.3
20260506162815 15 1.6 3.2 0.00 0.00 0.00 54 1013.3
20260506162315 14 3.2 6.4 0.00 0.00 0.00 55 1013.4
20260506161815 13 1.6 6.4 0.00 0.00 0.00 55 1013.5
20260506161313 13 1.6 4.8 0.00 0.00 0.00 55 1013.5
20260506160813 13 6.4 9.7 0.00 0.00 0.00 55 1013.6
20260506160242 13 1.6 4.8 0.00 0.00 0.00 55 1013.3
20260506155712 13 4.8 9.7 0.00 0.00 0.00 57 1013.6
20260506155125 13 4.8 6.4 0.00 0.00 0.00 57 1013.5
20260506154555 13 4.8 8.0 0.00 0.00 0.00 58 1013.5
20260506154024 13 0.0 4.8 0.00 0.00 0.00 58 1013.6
20260506153438 12 1.6 3.2 0.00 0.00 0.00 59 1013.5
20260506152907 12 1.6 3.2 0.00 0.00 0.00 59 1013.6
20260506152322 12 3.2 6.4 0.00 0.00 0.00 59 1013.6
20260506151822 12 4.8 11.3 0.00 0.00 0.00 60 1013.6
20260506151321 12 1.6 4.8 0.00 0.00 0.00 60 1013.5
20260506150821 12 0.0 3.2 0.00 0.00 0.00 60 1013.5
20260506150320 12 4.8 9.7 0.00 0.00 0.00 59 1013.6
20260506145750 12 3.2 8.0 0.00 0.00 0.00 58 1013.6
20260506145219 12 1.6 4.8 0.00 0.00 0.00 58 1013.7
20260506144634 13 6.4 12.9 0.00 0.00 0.00 57 1013.6
20260506144119 13 3.2 9.7 0.00 0.00 0.00 57 1013.6
20260506143523 13 3.2 6.4 0.00 0.00 0.00 57 1013.6
20260506142952 13 8.0 14.5 0.00 0.00 0.00 55 1013.5
20260506142422 14 1.6 3.2 0.00 0.00 0.00 55 1013.4
20260506141620 14 3.2 6.4 0.00 0.00 0.00 54 1013.5
20260506141034 15 3.2 6.4 0.00 0.00 0.00 53 1013.6
20260506140504 15 4.8 12.9 0.00 0.00 0.00 53 1013.5
20260506135933 15 3.2 8.0 0.00 0.00 0.00 53 1013.6
20260506135428 15 11.3 24.1 0.00 0.00 0.00 55 1013.4
20260506134826 13 6.4 11.3 0.00 0.00 0.00 55 1013.7
20260506134234 13 4.8 11.3 0.00 0.00 0.00 55 1013.4
20260506133704 13 4.8 11.3 0.00 0.00 0.00 56 1013.6
20260506133132 13 3.2 9.7 0.00 0.00 0.00 56 1013.6
20260506132547 13 4.8 12.9 0.00 0.00 0.00 54 1013.6
20260506132016 13 6.4 12.9 0.00 0.00 0.00 54 1013.5
20260506131446 14 6.4 14.5 0.00 0.00 0.00 53 1013.6
20260506130915 15 4.8 11.3 0.00 0.00 0.00 49 1013.4
20260506130324 16 3.2 11.3 0.00 0.00 0.00 45 1013.6
20260506125824 17 4.8 8.0 0.00 0.00 0.00 45 1013.4
20260506125324 17 1.6 3.2 0.00 0.00 0.00 50 1013.6
20260506124818 16 3.2 3.2 0.00 0.00 0.00 51 1013.6
20260506124316 15 3.2 12.9 0.00 0.00 0.00 51 1013.7
20260506123814 16 6.4 12.9 0.00 0.00 0.00 47 1013.4
20260506123313 16 11.3 20.9 0.00 0.00 0.00 51 1013.5
20260506122813 15 4.8 9.7 0.00 0.00 0.00 52 1013.4
20260506122312 15 3.2 6.4 0.00 0.00 0.00 50 1013.5
20260506121812 15 8.0 12.9 0.00 0.00 0.00 48 1013.6
20260506121312 16 6.4 12.9 0.00 0.00 0.00 50 1013.6
20260506120826 16 6.4 9.7 0.00 0.00 0.00 52 1013.5
20260506120321 15 3.2 11.3 0.00 0.00 0.00 53 1013.5
20260506115816 15 3.2 11.3 0.00 0.00 0.00 53 1013.6
20260506115312 15 8.0 12.9 0.00 0.00 0.00 51 1013.7